| time (UTC) | temp F | wind direction | speed MPH | gust MPH | rain 1hr in | rain 24hr in | rain mn in | humidity % | barometer mb |
| 20260904070811 | 38 | 278 | 3.0 | 3.0 | 0.00 | 0.00 | 0.00 | 94 | 1021.0 |
| 20260904070305 | 38 | 280 | 3.0 | 5.0 | 0.00 | 0.00 | 0.00 | 94 | 1021.1 |
| 20260904060805 | 41 | 275 | 3.0 | 5.0 | 0.00 | 0.00 | 0.00 | 90 | 1021.0 |
| 20260904060305 | 41 | 274 | 5.0 | 7.0 | 0.00 | 0.00 | 0.00 | 90 | 1021.0 |
| 20260904050805 | 43 | 279 | 6.0 | 7.0 | 0.00 | 0.00 | 0.00 | 87 | 1021.0 |
| 20260904040804 | 50 | 25 | 2.0 | 3.0 | 0.00 | 0.00 | 0.00 | 73 | 1020.6 |
| 20260904040305 | 50 | 24 | 3.0 | 6.0 | 0.00 | 0.00 | 0.00 | 70 | 1020.6 |
| 20260904030804 | 55 | 159 | 0.0 | 1.0 | 0.00 | 0.00 | 0.00 | 55 | 1020.0 |
| 20260904020804 | 58 | 88 | 0.0 | 0.0 | 0.00 | 0.00 | 0.00 | 44 | 1019.9 |
| 20260904020304 | 59 | 88 | 0.0 | 3.0 | 0.00 | 0.00 | 0.00 | 43 | 1019.8 |
| 20260904010804 | 62 | 54 | 1.0 | 3.0 | 0.00 | 0.00 | 0.00 | 40 | 1020.1 |
| 20260903230804 | 56 | 312 | 0.0 | 1.0 | 0.00 | 0.00 | 0.00 | 51 | 1020.7 |
| 20260903230304 | 55 | 338 | 1.0 | 3.0 | 0.00 | 0.00 | 0.00 | 53 | 1020.7 |
| 20260903220805 | 53 | 151 | 0.0 | 2.0 | 0.00 | 0.00 | 0.00 | 57 | 1021.1 |
| 20260903220305 | 53 | 191 | 1.0 | 5.0 | 0.00 | 0.00 | 0.00 | 54 | 1021.2 |
| 20260903210804 | 52 | 277 | 2.0 | 3.0 | 0.00 | 0.00 | 0.00 | 61 | 1021.3 |
| 20260903200804 | 50 | 288 | 3.0 | 6.0 | 0.00 | 0.00 | 0.00 | 65 | 1021.7 |
| 20260903200304 | 50 | 262 | 3.0 | 9.0 | 0.00 | 0.00 | 0.00 | 66 | 1021.8 |
| 20260903190804 | 48 | 283 | 6.0 | 7.0 | 0.00 | 0.00 | 0.00 | 71 | 1021.8 |
| 20260903180804 | 45 | 263 | 2.0 | 3.0 | 0.00 | 0.00 | 0.00 | 78 | 1022.0 |
| 20260903180304 | 45 | 264 | 2.0 | 7.0 | 0.00 | 0.00 | 0.00 | 79 | 1022.1 |
| 20260903170804 | 41 | 275 | 5.0 | 7.0 | 0.00 | 0.00 | 0.00 | 87 | 1021.7 |
| 20260903170304 | 41 | 272 | 5.0 | 8.0 | 0.00 | 0.00 | 0.00 | 88 | 1021.7 |
| 20260903160804 | 38 | 281 | 3.0 | 5.0 | 0.00 | 0.00 | 0.00 | 95 | 1021.5 |
| 20260903160304 | 38 | 274 | 2.0 | 6.0 | 0.00 | 0.00 | 0.00 | 96 | 1021.5 |
| 20260903150804 | 36 | 283 | 4.0 | 5.0 | 0.00 | 0.00 | 0.00 | 99 | 1021.0 |
| 20260903150304 | 36 | 279 | 3.0 | 6.0 | 0.00 | 0.00 | 0.00 | 99 | 1021.0 |
| 20260903140804 | 37 | 274 | 3.0 | 3.0 | 0.00 | 0.00 | 0.00 | 98 | 1020.4 |
| 20260903140305 | 37 | 283 | 3.0 | 6.0 | 0.00 | 0.00 | 0.00 | 98 | 1020.4 |
| 20260903130804 | 39 | 278 | 3.0 | 3.0 | 0.00 | 0.00 | 0.00 | 98 | 1019.7 |
| 20260903130304 | 39 | 276 | 3.0 | 7.0 | 0.00 | 0.00 | 0.00 | 98 | 1019.6 |
| 20260903120305 | 42 | 226 | 2.0 | 8.0 | 0.00 | 0.00 | 0.00 | 96 | 1019.1 |
| 20260903110805 | 43 | 258 | 2.0 | 6.0 | 0.00 | 0.00 | 0.00 | 97 | 1018.6 |
| 20260903110306 | 43 | 207 | 2.0 | 7.0 | 0.00 | 0.00 | 0.00 | 96 | 1018.5 |
| 20260903100805 | 44 | 281 | 3.0 | 5.0 | 0.00 | 0.00 | 0.00 | 97 | 1017.8 |
| 20260903100307 | 44 | 279 | 5.0 | 6.0 | 0.00 | 0.00 | 0.00 | 98 | 1017.7 |
| 20260903080806 | 46 | 265 | 2.0 | 2.0 | 0.00 | 0.00 | 0.00 | 98 | 1016.2 |
| 20260903080305 | 46 | 264 | 2.0 | 5.0 | 0.00 | 0.00 | 0.00 | 98 | 1016.1 |